Showing default

INTELSAT 32E, 41945

Orbit data source: Space-Track

INTELSAT 32E, 41945 is an American payload satellite in GEO that was launched on Tue, 14 Feb 2017 UTC via an ARIANE 5ECA launch vehicle from the French Guiana (FRGUI). Payload-class satellites include a variety of spacecraft equipped with specific instruments for various scientific and technological missions. These include communications satellites like Starlink; space stations such as the ISS; scientific satellites like the Hubble; Earth observation satellites from companies like Planet Labs, Umbra, and HawkEye 360; GPS; miniature CubeSats for education and research; and military/defense satellites.

Loading next visibility...
Identifier
41945, 2017-007B
Orbit
GEO
Last TLE update
16 hours ago
Origin
Manufacturer
Airbus/Toulouse
Mission
Operational Commercial Communications
Bus & Motor
EUROSTAR 3000X, R-4D?
Mass
~6,300 kg wet, ~3,000 kg dry
Launch date (UTC)
2017-02-14 (8 years ago)
Launch vehicle
ARIANE 5ECA
Launch site
French Guiana (FRGUI)
Object type
Payload
Rocket body
Debris
Shape & HBR
Box + 2 Pan, 39 m
Radar Cross Section
46.485 m², Large (>1 m²)

Expand to show TLE details & history

TLE from 16 hours ago
0 INTELSAT 32E
1 41945U 17007B   25183.48666578 -.00000262  00000-0  00000-0 0  9998
2 41945   0.0165  68.0032 0000632 293.7269  51.0558  1.00268425 30718
Epoch: 2025-07-02T11:40Z
TLE epoch observation values (Epoch: 2025-07-02T11:40:47.923Z)
Latitude
0.00239°
Longitude
-43.16559°
Altitude
35,785.361 km
Speed
3.075 km/s
True Right ascension
03h 31m 12s
True Declination
0° 00' 09"
Sunlit
Object was in daylight at epoch
Visualization orbit readout
Latitude
-0.02597°
Longitude
-166.33426°
Altitude
35,786.278 km
Speed
3.075 km/s
Apparent Right ascension
19h 43m 17s
Apparent Declination
-5° 49' 29"
Sunlit
Object is in daylight
Visualization observer readout
Local Sidereal Time
15:10:48
Azimuth
108.881° ESE
Elevation
12.664°
Doppler factor
1
Orbital elements
Apogee altitude
35,791.272 km
Perigee altitude
35,785.942 km
Semi-major axis
42,166.744 km
Eccentricity
0.00006
Inclination
0.0165°
RAAN
68.0032°
Arg. of periapsis
293.7269°
True anomaly
Unknown
Mean anomaly
51.0558°
Eccentric anomaly
Unknown
Mean motion
0.25066 °/min
Orbital period
1,436.2 mins
BSTAR
0
Loading historical data...
41945 neighbors
Loading maneuver chart data...
Loading SW <> Apogee altitude chart data...
Loading historical data...
Loading historical data...
Loading historical data...
Loading historical data...
Loading historical data...
Loading historical data...
Loading historical data...
Other satellites on launch #7 in the year 2017 (2017-02-14 UTC)

INTELSAT 32E Visibility forecast

Observer location: undefined°, undefined°

Span
Click to sort rows by Start time (UTC) header in descending order
Start Az.
Max El. time (UTC)
Max El. Az.
Max El.
End time (UTC)
End Az.
1440 mins2025-07-03 03:25:37.572Z108.896° ESE2025-07-03 19:34:37.572Z108.858° ESE12.396°2025-07-04 03:25:37.572Z108.909° ESE
|